Location: Bord�res
(43.2000°N, 0.2167°W)
Time: 14:00:35
(UTC+00:00)

SJ 16-02 - Pass Details

Date: 03 March 2021
Orbit: 605 x 617 km, 75.0° (Epoch: 14 April)

Event Time Altitude Azimuth Distance (km) Brightness Sun altitude
Rises 21:13:22 0° 333° (NNW) 2,882 5.5 -36.2°
Reaches altitude 10° 21:15:43 10° 326° (NW) 1,975 4.6 -36.6°
Enters shadow 21:16:30 15° 322° (NW) 1,691 4.2 -36.7°
